Flag for US Virgin Islands Weather past 2 weeks in Charlotte Amalie, US Virgin Islands

Now
83 °F

Clear.


Feels Like: 89 °F
Forecast: 82 / 88 °F
Wind: 13 mph from East

Location: Cyril E. King International Airport

Current Time: Jul 29, 2015 at 8:25:26 PM

Latest Report: Jul 29, 2015 at 7:53 PM


Visibility: 10 mi

Pressure: 30.01 "Hg

Humidity: 72%

Dew point: 73 °F

Location of Charlotte AmalieLocation

Historic Weather in Charlotte Amalie — Graph

°F

Charlotte Amalie temperature yesterday

Maximum temperature yesterday: 90 °F (at 9:53 AM)
Minimum temperature yesterday: 82 °F (at 11:53 PM)
Average temperature yesterday: 86 °F

Past Weeks' High & Low Weather Summary

 TemperatureHumidityPressure
High93 °F (Jul 27, 10:53 AM)88% (Jul 22, 12:53 AM)30.12 "Hg (Jul 22, 12:53 AM)
Low78 °F (Jul 19, 5:53 AM)46% (Jul 27, 10:53 AM)29.97 "Hg (Jul 21, 4:06 PM)
Average85 °F70%30.04 "Hg
* Reported Jul 14 6:53 PM — Jul 29 6:53 PM, Charlotte Amalie, Weather by CustomWeather, © 2015

Note: Actual official high and low records may vary slightly from our data, if they occured in-between our weather recording intervals... More about our weather records

Advertising

Charlotte Amalie weather history for previous 24 hours

 ConditionsComfort  
Time TempWeatherWind HumidityBarometerVisibility
6:53 PM
Wed, Jul 29
85 °FSunny.8 mph65%30.00 "Hg10 mi
5:53 PM87 °FScattered clouds.16 mph63%29.98 "Hg10 mi
4:53 PM88 °FPassing clouds.17 mph63%29.98 "Hg10 mi
3:53 PM89 °FCloudy.13 mph59%29.98 "Hg10 mi
2:53 PM89 °FScattered clouds.14 mph61%29.99 "Hg10 mi
1:53 PM87 °FLight rain. Partly sunny.16 mph67%30.02 "Hg9 mi
12:53 PM87 °FPartly sunny.16 mph65%30.03 "Hg10 mi
11:53 AM86 °FMostly cloudy.9 mph70%30.04 "Hg10 mi
10:53 AM87 °FBroken clouds.15 mph67%30.04 "Hg10 mi
9:53 AM85 °FBroken clouds.14 mph70%30.05 "Hg10 mi
9:03 AM85 °FBroken clouds.13 mph70%30.05 "Hg10 mi
8:53 AM86 °FPartly sunny.13 mph67%30.05 "Hg10 mi
8:24 AM84 °FPartly sunny.10 mph72%30.04 "Hg10 mi
7:53 AM85 °FScattered clouds.10 mph68%30.04 "Hg10 mi
6:53 AM82 °FCloudy.12 mph77%30.03 "Hg10 mi
5:53 AM81 °FClear.5 mph77%30.01 "Hg10 mi
4:53 AM81 °FClear.6 mph77%30.01 "Hg10 mi
3:53 AM82 °FPassing clouds.5 mph74%30.01 "Hg10 mi
2:53 AM82 °FPassing clouds.6 mph77%30.00 "Hg10 mi
1:53 AM82 °FPassing clouds.5 mph74%30.01 "Hg10 mi
12:53 AM82 °FPassing clouds.No wind74%30.03 "Hg10 mi
11:53 PM
Tue, Jul 28
82 °FClear.5 mph74%30.04 "Hg10 mi
10:53 PM83 °FClear.8 mph72%30.05 "Hg10 mi
9:53 PM83 °FClear.9 mph72%30.04 "Hg10 mi
8:53 PM84 °FPassing clouds.12 mph72%30.03 "Hg10 mi
Weather by CustomWeather, © 2015

See weather overviewHow to use our weather pages